NDF61D EDDH-LOWW

Flight info

Callsign NDF61D
Flight time N/A
Altitude 37000
Route RAMAR6G/33 RAMAR Z998 RATMO DCT HDO DCT EVIKU DCT BITSI DCT MIKOV MIKOV8W
Aircraft A320/M-SDE3FGHIRWY/LB1

Departure

Time N/A
Airport Hamburg Helmut Schmidt Airport (EDDH)

Arrival

Time 2026-05-07 18:37
Airport Vienna International Airport (LOWW)
Time Latitude Longitude Altitude Speed Heading
2026-05-07 18:37 48.10126 16.58382 610 ft 10 kts 216°
2026-05-07 18:37 48.10115 16.58366 623 ft 0 kts 228°
2026-05-07 18:38 48.10092 16.58315 615 ft 10 kts 248°
2026-05-07 18:38 48.10068 16.58215 615 ft 6 kts 276°
2026-05-07 18:38 48.10109 16.58190 614 ft 11 kts 345°
2026-05-07 18:39 48.10183 16.58161 616 ft 10 kts 345°
2026-05-07 18:39 48.10244 16.58136 621 ft 8 kts 345°
2026-05-07 18:39 48.10295 16.58114 610 ft 8 kts 342°
2026-05-07 18:39 48.10360 16.58086 622 ft 11 kts 343°
2026-05-07 18:40 48.10414 16.58062 623 ft 7 kts 343°
2026-05-07 18:40 48.10482 16.58032 620 ft 17 kts 343°
2026-05-07 18:40 48.10598 16.57981 620 ft 17 kts 343°
2026-05-07 18:40 48.10711 16.57935 621 ft 16 kts 344°
2026-05-07 18:41 48.10812 16.57892 615 ft 14 kts 344°
2026-05-07 18:41 48.10899 16.57856 613 ft 12 kts 344°
2026-05-07 18:41 48.10971 16.57825 621 ft 10 kts 344°
2026-05-07 18:41 48.11027 16.57800 621 ft 7 kts 344°
2026-05-07 18:42 48.11073 16.57782 613 ft 7 kts 346°
2026-05-07 18:42 48.11126 16.57759 614 ft 12 kts 339°
2026-05-07 18:42 48.11176 16.57662 626 ft 13 kts 297°
2026-05-07 18:42 48.11215 16.57538 618 ft 14 kts 296°
2026-05-07 18:43 48.11259 16.57404 619 ft 15 kts 296°
2026-05-07 18:43 48.11306 16.57258 613 ft 16 kts 295°
2026-05-07 18:43 48.11356 16.57100 611 ft 17 kts 296°
2026-05-07 18:43 48.11410 16.56933 616 ft 18 kts 295°
2026-05-07 18:44 48.11467 16.56755 617 ft 19 kts 297°
2026-05-07 18:44 48.11530 16.56570 620 ft 20 kts 296°
2026-05-07 18:44 48.11593 16.56375 621 ft 21 kts 295°
2026-05-07 18:44 48.11660 16.56172 610 ft 22 kts 296°
2026-05-07 18:45 48.11729 16.55958 618 ft 23 kts 295°
2026-05-07 18:45 48.11800 16.55739 615 ft 24 kts 297°
2026-05-07 18:45 48.11874 16.55513 620 ft 24 kts 293°
2026-05-07 18:45 48.11939 16.55276 622 ft 25 kts 296°
2026-05-07 18:46 48.12012 16.55042 619 ft 25 kts 296°
2026-05-07 18:46 48.12085 16.54826 618 ft 12 kts 298°
2026-05-07 18:46 48.12092 16.54804 616 ft 0 kts 296°
2026-05-07 18:46 48.12107 16.54791 617 ft 6 kts 348°
2026-05-07 18:47 48.12137 16.54803 614 ft 3 kts 28°
2026-05-07 18:47 48.12161 16.54824 622 ft 5 kts 30°
2026-05-07 18:47 48.12184 16.54842 613 ft 2 kts 27°
2026-05-07 18:47 48.12187 16.54844 612 ft 1 kts 27°